ATLAS 5 CENTAUR DEB, 43972

Orbit data source: Space-Track

ATLAS 5 CENTAUR DEB, 43972 is space debris in HEO originally from a launch on Wed, 17 Sep 2014 UTC launched from the Air Force Eastern Test Range (AFETR). Debris objects in space refer to the collection of defunct objects orbiting the Earth. Examples of debris include non-operational satellites, rocket bodies, and fragments generated from explosions, collisions, or faulty payload assembly.

Loading next visibility...
Identifier
43972, 2014-055AB
Orbit
HEO
Last TLE update
2 days ago
Origin
Manufacturer
Unknown
Mission
Spacecraft
Bus & Motor
Unknown
Mass
Unknown
Launch date (UTC)
2014-09-17 (11 years ago)
Launch vehicle
Unknown
Launch site
Air Force Eastern Test Range (AFETR)
Object type
Payload
Rocket body
Debris
Shape & HBR
Unknown
Radar Cross Section
Medium (>0.1 m² and <1 m²)

Expand to show TLE details & history

TLE from 2 days ago
0 ATLAS 5 CENTAUR DEB
1 43972U 14055AB  25127.30413072 -.00000020  00000-0  00000-0 0  9990
2 43972  19.5483 183.7191 4870337  94.5196 320.3852  1.85389938 45199
Epoch: 2025-05-07T07:17Z
Definitive object data (Epoch: 2025-05-07T07:17:56.894Z)
Latitude
0.00003°
Longitude
-151.06485°
Altitude
15,797.586 km
Speed
4.659 km/s
True Right ascension
12h 15m 15s
True Declination
0° 00' 00"
Sunlit
Object was in daylight at TLE epoch
Visualization TLE readout
Latitude
-19.31115°
Longitude
128.40549°
Altitude
35,120.659 km
Speed
2.23 km/s
Apparent Right ascension
06h 28m 39s
Apparent Declination
-23° 11' 26"
Sunlit
Object is in daylight
Visualization observer readout
Local Sidereal Time
14:34:49
Azimuth
270.476° WNW
Elevation
-38.424°
Doppler factor
1
Orbital elements
Apogee altitude
35,247.667 km
Perigee altitude
7,981.077 km
Semi-major axis
27,992.509 km
Eccentricity
0.4870337
Inclination
19.5483°
RAAN
183.7191°
Arg. of periapsis
94.5196°
True anomaly
265.4789°
Mean anomaly
320.3852°
Eccentric anomaly
295.11932°
Mean motion
0.46343 °/min
BSTAR
Unknown
Orbital period
776.82 mins
Loading maneuver chart data...
Loading SW <> Apogee altitude chart data...
Loading historical data...
Loading historical data...
Loading historical data...
Loading historical data...
Loading historical data...
Loading historical data...
Loading historical data...

ATLAS 5 CENTAUR DEB Visibility forecast

Observer location: undefined°, undefined°

Span
Click to sort rows by Start time (UTC) header in descending order
Start Az.
Max El. time (UTC)
Max El. Az.
Max El.
End time (UTC)
End Az.
133 mins2025-05-09 12:09:59.032Z263.562° W2025-05-09 12:49:59.032Z192.784° SSW37.36°2025-05-09 14:22:59.032Z125.362° SE
130 mins2025-05-09 21:16:59.032Z133.989° SE2025-05-09 22:35:59.032Z130.189° SE11.534°2025-05-09 23:26:59.032Z121.44° SE
|